Date,TemperatureHighF,TemperatureAvgF,TemperatureLowF,DewpointHighF,DewpointAvgF,DewpointLowF,HumidityHigh,HumidityAvg,HumidityLow,PressureMaxIn,PressureMinIn,WindSpeedMaxMPH,WindSpeedAvgMPH,GustSpeedMaxMPH,PrecipitationSumIn
2012-1-1,40.7,38.0,36.6,35.6,32.9,29.5,95,82,71,30.03,29.58,6,3,26,0.06
2012-1-2,32.8,27.4,17.9,25.2,19.5,11.8,85,72,62,29.89,29.62,7,4,13,0.04
2012-1-3,17.7,8.2,2.4,13.3,1.2,-3.3,83,73,63,30.27,29.88,5,2,13,0.00
2012-1-4,28.8,17.9,1.3,20.9,9.3,-4.0,80,69,53,30.26,29.84,4,1,13,0.00
2012-1-5,33.3,31.5,29.7,26.5,25.1,23.2,84,77,72,29.90,29.75,3,1,9,0.00
2012-1-6,51.8,45.5,31.7,37.2,34.3,25.6,78,65,56,29.74,29.58,4,1,9,0.02
2012-1-7,47.8,43.7,35.7,38.8,33.7,27.2,79,68,53,30.03,29.64,5,3,16,0.00
2012-1-8,28.9,23.3,20.6,20.4,18.2,16.9,88,81,70,30.33,30.28,2,0,7,0.00
2012-1-9,42.6,37.9,22.9,25.9,23.1,19.9,88,56,45,30.28,29.83,3,1,8,0.01
2012-1-10,41.1,38.0,34.4,31.9,28.4,26.6,79,69,59,29.99,29.88,5,2,9,0.00
2012-1-11,48.6,41.1,25.8,35.8,31.6,23.3,92,70,53,29.95,29.64,3,1,8,0.07
2012-1-12,42.8,40.4,35.5,42.0,39.3,34.2,97,96,89,29.64,29.28,1,0,5,0.59
2012-1-13,41.1,23.3,18.8,40.3,21.7,17.1,97,94,92,29.70,29.27,6,3,13,0.03
2012-1-14,12.3,8.7,4.9,8.4,5.1,1.4,87,85,83,30.22,30.09,2,0,12,0.00
2012-1-15,14.8,5.7,1.1,8.9,1.6,-2.4,86,83,77,30.58,30.53,0,0,5,0.01
2012-1-16,38.6,33.5,14.6,34.3,25.4,11.2,93,73,57,30.24,29.87,5,3,13,0.32
2012-1-17,49.7,41.8,31.1,46.5,39.0,23.1,97,90,72,29.87,29.26,11,3,26,0.38
2012-1-18,30.8,18.8,12.8,23.8,11.5,8.3,86,73,61,30.19,29.64,8,2,26,0.00
2012-1-19,29.0,23.8,12.8,23.3,16.8,7.8,89,75,59,30.13,29.72,7,3,11,0.00
2012-1-20,20.4,17.7,14.9,11.7,9.6,7.7,83,70,61,30.30,30.20,2,0,4,0.02
2012-1-21,24.0,23.0,22.4,19.5,19.0,18.5,86,84,80,30.35,30.21,1,0,3,0.09
2012-1-22,32.5,31.7,29.7,27.3,26.0,24.3,81,79,78,30.16,30.10,4,3,7,0.03
2012-1-23,48.1,43.8,32.7,41.4,38.9,27.6,89,83,76,30.10,29.60,8,4,17,0.09
2012-1-24,38.2,33.0,31.6,33.5,28.5,24.6,89,83,75,30.20,29.74,5,2,17,0.01
2012-1-25,31.4,30.2,29.0,25.4,24.5,23.3,86,79,76,30.35,30.22,2,0,7,0.00
2012-1-26,36.2,33.9,29.3,35.2,32.5,27.5,96,94,93,30.11,29.56,1,0,4,0.17
2012-1-27,43.1,36.1,33.3,42.3,33.5,26.9,97,90,76,29.91,29.28,6,3,13,0.55
2012-1-28,35.6,32.4,28.7,30.7,25.3,18.2,87,75,62,29.95,29.73,7,4,21,0.03
2012-1-29,32.7,30.3,26.1,28.4,27.2,23.6,93,88,82,30.02,29.88,2,0,6,0.01
2012-1-30,30.4,27.6,25.6,24.3,20.2,15.2,91,75,57,30.26,30.01,3,1,12,0.15
2012-1-31,54.4,49.5,26.1,40.6,37.4,23.6,91,63,57,30.00,29.79,4,1,12,0.13
2012-2-1,54.7,43.0,36.1,45.4,36.0,29.6,93,76,58,30.07,29.78,7,3,16,0.12
2012-2-2,36.1,30.3,29.0,29.6,26.5,22.6,89,86,76,30.37,30.06,3,1,14,0.00
2012-2-3,36.6,36.0,35.1,30.8,30.5,30.2,83,80,78,30.39,30.36,2,0,9,0.02
2012-2-4,28.2,28.1,28.0,25.4,25.2,25.0,89,89,88,30.18,30.16,0,0,0,0.00
2012-2-5,30.5,28.0,26.9,25.4,23.5,22.1,88,83,81,30.16,30.12,0,0,1,0.00
2012-2-6,46.2,40.4,29.8,32.1,29.2,23.5,83,65,46,30.12,29.91,5,2,17,0.00
2012-2-7,34.7,29.4,21.4,31.1,25.1,16.5,91,84,76,30.31,30.12,3,1,5,0.03
2012-2-8,29.7,26.9,17.6,21.8,19.5,14.9,90,74,65,30.30,30.12,2,0,3,0.00
2012-2-9,39.4,33.6,28.5,27.5,24.7,22.3,82,70,55,30.14,30.07,4,2,9,0.00
2012-2-10,31.9,31.7,31.4,22.4,22.1,21.7,68,67,66,30.07,30.01,2,1,8,0.00
2012-2-11,17.5,15.1,11.3,13.7,10.5,5.2,86,82,75,29.98,29.83,5,2,10,0.00
2012-2-12,24.7,20.9,17.0,19.4,16.0,13.2,90,81,71,29.96,29.85,6,3,17,0.01
2012-2-13,35.8,31.3,24.7,24.1,21.6,16.6,76,67,58,29.98,29.92,6,2,17,0.18
2012-2-14,35.4,33.6,31.6,30.9,28.8,18.5,92,83,58,29.98,29.90,2,1,6,0.03
2012-2-15,38.6,33.3,24.8,31.7,27.3,21.5,93,79,64,30.24,30.16,4,1,8,0.01
2012-2-16,41.3,38.8,32.8,38.9,35.9,29.6,92,89,85,30.07,29.86,4,1,8,0.10
2012-2-17,40.7,34.7,25.6,34.9,29.0,21.2,91,80,69,30.05,29.92,4,2,13,0.01
2012-2-18,39.4,33.2,24.8,32.8,29.5,20.7,92,86,74,30.13,29.81,5,2,9,0.25
2012-2-19,30.3,27.9,24.3,26.0,21.5,17.6,84,76,72,30.15,30.09,2,1,5,0.00
2012-2-20,36.8,29.4,20.3,21.8,19.3,16.8,86,67,51,30.35,30.13,2,1,6,0.01
2012-2-21,39.7,37.0,32.3,32.7,26.3,21.8,84,66,51,30.01,29.67,6,3,9,0.00
2012-2-22,45.1,37.2,31.9,36.8,32.7,29.8,93,84,66,29.62,29.40,5,1,10,0.06
2012-2-23,39.6,34.3,28.6,35.3,30.3,25.9,96,86,71,29.71,29.40,2,0,10,0.33
2012-2-24,42.6,36.5,28.8,41.4,33.1,26.8,96,87,75,29.65,29.22,9,3,18,0.23
2012-2-25,33.9,27.1,23.4,27.8,22.4,14.6,94,83,60,30.18,29.35,9,5,20,0.03
2012-2-26,32.9,28.3,23.6,20.9,18.9,15.9,77,68,59,30.44,30.18,3,0,9,0.11
2012-2-27,49.5,39.9,25.4,30.5,26.3,19.2,77,59,44,30.25,29.97,8,4,14,0.01
2012-2-28,34.4,30.1,25.8,26.0,22.1,20.3,83,72,66,30.48,30.25,6,1,16,0.00
2012-2-29,36.1,33.0,30.2,34.8,30.1,23.6,95,89,73,30.07,29.54,1,0,7,0.19
2012-3-1,40.5,37.9,35.9,35.6,33.7,32.7,95,85,77,29.89,29.53,5,2,11,0.15
2012-3-2,50.1,45.5,36.2,39.1,36.2,33.0,90,71,59,29.90,29.32,7,3,15,0.08
2012-3-4,22.2,20.1,18.5,18.4,15.2,12.6,85,81,78,29.84,29.74,5,2,10,0.01
2012-3-5,25.7,20.3,13.7,14.3,9.9,7.5,79,64,50,30.42,29.84,4,2,10,0.01
2012-3-6,42.5,36.6,17.2,25.1,22.1,10.6,79,56,46,30.54,30.24,5,2,9,0.01
2012-3-7,67.7,60.3,48.2,42.5,36.7,28.6,49,42,33,30.21,29.99,4,2,15,0.00
2012-3-8,59.2,47.2,32.1,51.7,41.9,25.7,92,82,57,30.00,29.68,7,4,17,0.32
2012-3-9,37.1,31.9,23.2,33.4,24.1,13.7,89,74,53,30.34,30.02,10,4,20,0.03
2012-3-10,35.8,32.7,28.6,20.6,18.4,16.9,64,56,46,30.41,30.27,3,0,9,0.02
2012-3-11,61.3,50.1,41.2,32.9,30.0,27.4,58,47,33,30.24,30.22,4,1,16,0.00
2012-3-12,67.3,59.3,44.6,48.6,41.0,33.1,80,53,34,30.20,29.91,4,1,10,0.00
2012-3-13,63.5,57.6,46.6,52.3,47.8,41.1,91,71,56,30.00,29.85,7,2,14,0.04
2012-3-14,62.2,51.6,40.3,40.1,34.0,29.7,88,53,32,30.16,30.00,4,1,12,0.00
2012-3-15,71.7,57.5,40.7,52.8,45.9,30.6,86,66,49,30.13,29.99,4,0,6,0.00
2012-3-16,66.5,60.2,51.3,57.9,54.0,48.0,96,80,69,30.17,29.98,4,2,8,0.06
2012-3-17,62.3,54.2,46.1,54.3,48.8,43.9,92,82,74,30.17,30.15,4,1,12,0.00
2012-3-18,74.5,62.7,56.6,60.4,56.3,53.5,90,81,55,30.07,30.04,1,0,5,0.03
2012-3-19,75.2,66.7,57.6,62.3,58.1,54.2,91,74,59,30.13,30.07,5,1,10,0.00
2012-3-20,76.4,67.2,51.0,62.0,58.0,49.9,98,74,56,30.21,30.12,2,0,6,0.00
2012-3-21,55.0,53.1,52.2,53.3,51.2,49.9,94,93,92,30.23,30.22,0,0,0,0.00
2012-3-22,78.8,65.5,53.7,60.7,54.9,50.1,89,70,50,30.15,30.04,3,0,6,0.00
2012-3-23,65.3,59.5,54.5,50.8,43.3,36.7,87,55,46,30.13,30.02,4,1,10,0.00
2012-3-24,60.3,52.1,48.2,49.6,44.6,40.7,90,76,60,29.84,29.82,3,0,7,0.04
2012-3-25,51.7,49.6,46.9,47.3,45.3,41.7,89,85,80,29.83,29.78,4,2,6,0.12
2012-3-26,46.7,34.1,30.7,41.2,17.6,10.4,81,51,36,30.30,29.83,7,4,16,0.00
2012-3-27,43.3,32.9,20.6,23.8,14.8,8.4,66,48,30,30.40,29.91,2,1,4,0.00
2012-3-28,68.7,56.7,38.7,52.5,44.6,23.7,86,65,53,29.91,29.50,7,4,17,0.08
2012-3-29,41.6,37.5,36.0,37.7,29.4,26.5,91,73,68,30.10,29.72,5,2,12,0.12
2012-3-30,44.7,37.1,26.2,29.8,27.4,22.3,91,69,48,30.13,29.89,4,1,12,0.00
2012-3-31,42.9,36.6,31.0,35.3,33.4,27.6,94,88,71,29.93,29.90,4,2,11,0.24
2012-4-1,37.7,36.8,35.6,36.4,35.3,33.8,95,94,93,29.76,29.68,2,0,5,0.27
2012-4-2,51.4,44.9,31.9,37.5,27.3,20.6,96,54,33,29.99,29.77,6,2,11,0.01
2012-4-3,54.9,45.9,29.2,31.8,25.6,20.5,81,47,26,30.02,29.79,3,0,6,0.00
2012-4-4,54.4,48.3,40.0,39.0,32.0,27.0,68,53,42,29.82,29.70,9,3,16,0.00
2012-4-5,45.2,38.7,32.4,28.8,25.6,23.4,70,60,48,30.01,29.93,5,2,11,0.00
2012-4-6,51.3,42.2,26.0,29.0,24.6,20.3,91,51,30,30.15,30.09,5,3,13,0.00
2012-4-7,56.4,48.2,33.9,32.7,24.8,20.2,82,42,26,30.23,30.08,5,3,13,0.00
2012-4-8,55.9,47.9,43.4,42.1,36.0,32.0,83,64,41,29.80,29.76,7,4,19,0.10
2012-4-9,54.7,47.6,38.4,32.2,27.0,22.5,65,46,32,29.77,29.63,11,6,22,0.00
2012-4-10,47.1,42.5,36.1,35.0,32.5,26.2,88,68,52,29.81,29.66,6,3,20,0.02
2012-4-11,48.7,42.1,35.5,40.8,36.0,32.3,94,80,60,30.06,29.81,7,2,13,0.11
2012-4-12,52.9,47.1,39.4,37.0,32.4,29.3,87,57,45,30.17,30.06,5,2,8,0.00
2012-4-13,60.0,51.7,40.2,37.4,31.0,25.5,64,46,33,30.18,30.14,4,1,9,0.00
2012-4-14,62.8,58.7,55.5,47.8,43.2,37.7,75,57,40,29.95,29.91,3,1,6,0.00
2012-4-15,68.5,64.2,57.5,61.5,59.2,55.1,93,84,77,29.87,29.80,1,0,9,0.06
2012-4-16,84.7,73.2,57.4,64.7,56.4,43.8,93,56,43,29.93,29.66,9,4,18,0.01
2012-4-17,57.1,49.4,36.5,43.8,35.7,29.1,75,59,53,30.34,29.94,8,2,14,0.00
2012-4-18,53.6,44.1,33.5,38.0,31.8,27.5,92,63,50,30.35,30.05,4,1,10,0.00
2012-4-19,70.8,60.8,33.4,53.1,46.1,28.9,85,60,45,30.05,29.89,5,2,10,0.00
2012-4-20,66.3,59.2,53.5,50.6,48.8,46.5,78,69,55,29.89,29.60,5,0,6,0.00
2012-4-21,59.9,44.2,41.1,46.5,41.0,39.5,94,89,61,29.79,29.65,4,3,9,0.36
2012-4-22,40.8,39.2,37.3,36.9,35.7,34.6,94,87,80,29.95,29.75,7,4,18,0.09
2012-4-23,38.4,34.3,32.2,35.6,33.0,30.9,96,95,89,29.75,29.24,7,3,17,1.14
2012-4-24,44.0,39.7,35.3,39.8,35.3,32.3,95,84,71,29.59,29.26,6,2,9,0.25
2012-4-25,54.8,46.9,34.7,37.4,32.0,28.6,85,58,39,29.86,29.59,6,2,13,0.00
2012-4-26,59.8,49.3,38.9,44.8,39.7,34.8,90,71,47,29.77,29.55,6,2,11,0.10
2012-4-27,44.3,38.0,32.0,37.0,25.9,22.8,83,62,53,30.20,29.77,6,3,14,0.01
2012-4-28,31.8,29.5,27.5,23.6,23.1,22.0,80,77,71,30.22,30.20,0,0,12,0.00
2012-4-29,55.0,42.7,33.2,26.7,22.7,19.2,76,48,27,30.26,30.23,3,0,12,0.00
2012-4-30,57.6,49.6,31.6,45.4,34.2,23.9,91,59,29,30.26,29.91,4,0,12,0.21
2012-5-1,57.5,52.4,48.4,51.6,49.1,47.0,96,89,78,30.05,29.94,2,1,9,0.08
2012-5-2,73.4,65.6,49.2,63.5,57.9,46.1,91,77,61,30.04,29.83,3,0,9,0.01
2012-5-3,76.3,67.4,56.3,65.9,61.5,53.9,98,82,65,30.02,29.81,8,1,10,0.21
2012-5-4,73.6,67.4,56.2,65.6,60.9,54.1,95,80,70,29.94,29.87,5,2,10,0.03
2012-5-5,61.4,53.2,41.7,56.5,41.5,34.0,84,66,40,30.09,29.94,5,2,13,0.00
2012-5-6,64.9,59.2,47.5,45.4,35.9,29.9,67,43,28,30.12,30.04,5,2,10,0.00
2012-5-7,66.5,60.6,53.2,58.2,53.3,41.8,96,78,53,30.00,29.77,3,1,7,0.29
2012-5-8,66.5,60.6,52.4,62.9,58.0,49.9,98,92,80,29.75,29.68,3,0,7,0.47
2012-5-9,68.5,60.1,49.9,57.3,49.7,45.8,97,70,48,29.74,29.60,6,1,10,0.00
2012-5-10,59.0,53.4,46.9,45.7,36.9,32.8,86,54,39,29.85,29.65,6,3,15,0.00
2012-5-11,68.3,60.7,48.4,42.7,39.6,34.9,67,47,34,30.09,29.85,6,2,15,0.00
2012-5-12,75.8,68.2,49.6,51.2,44.3,39.8,71,43,32,30.13,30.09,5,2,15,0.00
2012-5-13,69.9,62.4,53.1,57.4,52.2,47.3,89,70,54,30.16,30.06,5,1,15,0.00
2012-5-14,74.2,65.5,52.1,59.2,54.8,49.3,91,70,48,30.07,29.95,3,1,6,0.00
2012-5-15,75.7,64.5,54.3,52.2,48.0,45.9,92,58,38,29.97,29.84,3,0,9,0.00
2012-5-16,74.8,59.5,44.0,56.1,46.9,36.6,81,64,49,30.05,29.79,5,2,9,0.01
2012-5-17,62.3,58.4,42.7,43.8,38.9,34.6,88,50,37,30.18,30.04,3,2,7,0.00
2012-5-18,72.1,60.2,51.7,45.8,43.8,39.5,76,56,33,30.20,30.09,3,0,8,0.00
2012-5-19,82.0,71.6,52.0,61.1,52.2,44.5,81,52,33,30.14,30.08,4,1,8,0.00
2012-5-20,86.1,75.0,52.6,61.6,57.6,48.5,87,57,36,30.18,30.04,4,1,8,0.00
2012-5-21,82.3,71.6,62.1,66.5,61.7,53.5,96,73,51,30.05,29.87,5,1,9,0.27
2012-5-22,74.7,67.7,62.3,68.1,64.2,60.7,98,89,76,29.88,29.79,4,0,7,0.06
2012-5-23,75.6,68.3,59.1,65.4,61.6,56.8,96,80,64,29.94,29.86,3,0,7,0.01
2012-5-24,82.2,76.1,59.8,69.5,64.1,57.7,93,67,54,30.01,29.90,5,2,10,0.00
2012-5-25,66.9,66.7,66.6,60.1,59.8,59.5,79,78,78,29.94,29.94,0,0,5,0.00
2012-6-11,88.7,82.3,72.5,71.3,67.2,63.8,81,61,46,30.02,29.90,5,1,10,0.01
2012-6-12,76.2,69.3,59.9,72.6,65.6,49.4,99,88,68,29.91,29.73,4,1,9,0.08
2012-6-13,67.4,60.9,51.4,57.6,53.3,48.6,90,77,64,30.15,29.91,4,1,9,0.00
2012-6-14,72.6,65.9,49.7,59.5,54.1,47.3,92,67,51,30.25,30.15,5,2,9,0.00
2012-6-15,80.2,72.3,52.3,65.0,59.0,48.5,87,64,48,30.25,30.17,4,1,6,0.00
2012-6-16,75.5,67.6,59.6,65.0,60.7,53.4,86,79,67,30.23,30.05,1,0,5,0.00
2012-6-17,83.9,76.7,62.7,68.2,63.6,58.8,87,65,54,30.05,29.82,4,2,11,0.00
2012-6-18,80.9,74.1,66.4,70.7,65.7,59.4,90,75,66,29.91,29.83,5,2,12,0.00
2012-6-19,88.5,82.4,67.8,75.1,70.9,62.4,83,69,61,29.98,29.91,4,1,8,0.70
2012-6-20,92.0,84.7,73.5,77.2,69.5,63.2,79,61,48,30.02,29.90,4,1,8,0.00
2012-6-21,89.5,81.9,69.7,72.0,66.4,63.3,85,61,49,29.92,29.72,5,1,14,0.00
2012-6-22,80.6,74.2,60.2,67.6,64.0,55.9,93,72,54,29.86,29.76,4,1,14,0.04
2012-6-23,78.9,71.4,58.0,63.4,58.9,54.7,89,66,46,29.98,29.86,4,1,8,0.00
2012-6-24,71.3,68.0,62.5,60.7,59.7,58.6,90,75,67,29.89,29.76,2,0,7,0.04
2012-6-25,67.9,63.6,58.8,59.8,52.0,48.1,95,67,53,29.84,29.76,6,2,10,0.06
2012-6-26,73.9,69.2,58.7,54.7,51.9,48.3,74,55,45,29.87,29.76,7,2,14,0.00
2012-6-27,76.7,70.0,60.7,56.9,54.6,52.2,82,59,45,29.84,29.76,4,1,14,0.00
2012-6-28,88.6,81.1,60.3,67.7,63.2,55.1,84,55,42,29.81,29.61,2,0,14,0.00
2012-6-29,88.8,83.3,71.5,66.6,62.2,59.7,68,50,40,29.68,29.59,4,2,11,0.00
2012-6-30,88.1,81.2,68.5,69.1,62.4,57.9,90,55,38,29.74,29.65,5,2,11,0.00
2012-7-1,83.3,75.6,66.1,62.4,60.1,58.0,79,60,44,29.87,29.73,4,1,10,0.00
2012-7-2,86.2,78.4,65.1,63.9,60.1,57.2,80,55,39,29.97,29.87,4,1,8,0.00
2012-7-3,80.3,72.4,63.5,65.8,63.7,58.8,95,75,60,29.92,29.88,1,0,5,0.00
2012-7-4,88.1,82.0,76.4,74.8,72.5,66.7,81,73,63,29.75,29.69,2,0,9,0.00
2012-7-5,84.5,76.7,64.3,68.2,64.9,59.3,93,68,51,29.87,29.75,3,1,9,0.00
2012-7-6,94.4,83.3,63.2,77.3,69.2,58.9,89,65,44,29.88,29.81,4,1,8,0.00
2012-7-7,75.7,72.4,66.6,72.9,67.4,64.1,96,84,77,29.94,29.80,5,0,6,0.10
2012-7-8,83.5,75.8,65.0,68.4,65.0,59.7,95,70,53,29.91,29.85,3,1,7,0.00
2012-7-9,80.9,72.2,62.6,61.0,56.6,52.9,82,60,40,29.99,29.90,3,1,5,0.00
2012-7-10,82.0,74.3,58.3,63.7,56.5,49.5,84,56,34,30.07,29.97,4,1,11,0.02
2012-7-11,85.9,75.8,56.8,63.8,55.3,49.5,86,52,34,30.14,30.07,3,1,8,0.00
2012-7-12,90.9,79.5,58.6,64.1,60.3,52.6,82,54,36,30.12,30.04,4,1,7,0.00
2012-7-13,88.3,76.2,64.5,70.0,66.9,57.8,95,74,53,30.13,30.05,4,1,7,0.21
2012-7-14,88.9,78.0,66.4,70.3,67.3,65.5,97,71,48,30.12,30.01,2,0,5,0.00
2012-7-15,86.1,77.9,69.0,73.9,67.8,63.1,91,73,50,30.02,29.87,2,0,5,0.01
2012-7-16,90.5,81.6,68.3,71.6,67.4,62.3,97,64,42,29.89,29.77,4,1,9,0.00
2012-7-17,94.5,85.9,72.1,73.2,69.4,62.5,86,59,46,29.79,29.64,6,2,16,0.03
2012-7-18,82.8,76.9,63.0,69.1,65.3,59.8,90,68,52,29.91,29.84,4,1,8,0.00
2012-7-19,76.6,70.7,61.8,65.5,58.4,54.3,91,65,57,29.97,29.90,4,1,7,0.01
2012-7-20,73.1,69.8,61.8,62.1,58.9,53.9,90,69,58,30.02,29.96,3,0,6,0.01
2012-7-21,84.3,74.9,60.1,65.3,62.6,57.8,97,68,44,30.06,29.95,3,1,8,0.00
2012-7-22,88.3,79.3,65.2,69.6,66.0,61.9,90,65,51,30.04,29.96,3,1,9,0.00
2012-7-23,94.7,87.4,73.2,74.7,69.1,62.3,83,56,40,29.96,29.64,5,2,17,0.10
2012-7-24,83.6,77.3,59.7,71.3,63.8,54.5,84,64,46,29.86,29.66,6,2,15,0.00
2012-7-25,84.5,75.4,59.0,64.7,59.3,54.6,90,59,41,29.93,29.69,4,0,5,0.07
2012-7-26,83.8,76.1,63.9,74.3,70.5,60.6,98,84,69,29.69,29.53,4,1,15,1.31
2012-7-27,80.2,73.5,63.5,69.7,66.0,60.2,98,78,57,29.87,29.61,3,1,7,0.11
2012-7-28,79.5,72.1,62.8,70.4,66.0,60.3,98,82,65,29.96,29.87,4,1,10,0.26
2012-7-29,84.6,76.6,61.6,68.7,59.3,54.2,98,58,37,30.02,29.96,3,1,6,0.00
2012-7-30,86.9,78.8,61.1,67.4,61.0,56.5,87,57,39,30.00,29.91,3,1,6,0.00
2012-7-31,87.7,76.6,64.2,72.9,68.4,60.4,97,77,54,29.93,29.73,4,1,10,0.52
2012-8-1,82.5,75.3,65.1,69.8,64.9,62.3,99,72,55,29.83,29.77,3,1,9,0.01
2012-8-2,85.6,76.9,63.2,72.4,67.0,61.6,98,73,52,29.85,29.78,2,0,9,0.00
2012-8-3,88.7,82.1,67.7,75.7,70.8,62.7,88,69,59,29.99,29.83,2,0,6,0.00
2012-8-4,92.0,84.8,69.9,77.5,72.9,66.6,97,69,53,30.03,29.91,4,2,11,0.00
2012-8-5,87.1,77.2,66.6,75.8,70.4,64.5,93,81,67,29.95,29.79,4,1,12,2.34
2012-8-6,77.9,69.3,58.3,64.3,59.4,55.2,93,72,52,30.08,29.96,2,1,9,0.00
2012-8-7,84.6,75.6,57.1,62.9,59.5,54.7,92,60,42,29.97,29.87,2,1,7,0.00
2012-8-8,87.5,79.0,67.7,70.4,66.9,63.0,85,67,50,29.91,29.85,5,1,13,0.00
2012-8-9,80.3,73.7,64.8,71.3,67.0,62.1,93,80,60,29.86,29.73,3,0,8,0.00
2012-8-10,77.2,71.5,66.8,69.8,67.4,64.2,97,87,73,29.74,29.62,3,0,6,0.61
2012-8-11,76.5,70.4,62.1,68.2,61.6,57.9,98,74,60,29.83,29.67,5,1,13,0.00
2012-8-12,76.6,69.9,61.0,68.0,63.9,57.6,92,82,68,29.91,29.82,4,0,6,0.04
2012-8-13,81.7,73.1,64.3,68.1,63.4,60.4,97,73,50,29.97,29.89,1,0,6,0.00
2012-8-14,78.2,68.3,62.8,69.1,64.4,59.8,98,88,68,29.91,29.77,2,0,4,0.99
2012-8-15,77.9,70.3,59.7,69.3,62.7,57.3,99,78,56,29.90,29.84,3,1,5,0.01
2012-8-16,82.1,72.9,59.4,68.4,62.5,57.7,98,72,51,29.93,29.75,2,0,7,0.00
2012-8-17,75.9,69.4,59.3,65.4,60.5,53.6,91,74,63,29.86,29.74,2,1,14,0.07
2012-8-18,72.1,60.9,49.6,57.0,51.9,47.9,96,74,51,29.95,29.86,2,0,14,0.00
2012-8-19,77.0,66.4,51.0,59.4,54.9,48.8,95,69,44,29.96,29.82,2,0,14,0.00
2012-8-20,74.6,67.6,54.7,61.3,56.5,51.2,95,69,49,29.93,29.84,3,1,6,0.00
2012-8-21,77.6,68.5,54.2,58.5,54.4,49.5,97,63,41,30.05,29.93,1,0,4,0.00
2012-8-22,80.0,72.5,54.8,64.0,59.2,52.0,91,65,48,30.11,30.04,3,0,5,0.00
2012-8-23,83.5,72.9,54.6,63.9,60.7,53.2,96,68,45,30.13,30.05,2,0,5,0.00
2012-8-24,87.1,70.1,54.4,65.8,59.3,53.0,97,72,36,30.14,30.07,3,0,5,0.00
2012-8-25,88.1,79.7,63.5,68.2,64.0,57.5,82,60,41,30.18,30.09,2,1,8,0.00
2012-8-26,82.0,72.7,61.7,67.2,64.8,60.3,95,77,61,30.21,30.05,3,0,6,0.00
2012-8-27,80.8,72.4,64.0,71.3,67.8,61.3,96,86,68,30.00,29.86,2,0,7,0.10
2012-8-28,78.3,71.3,57.1,68.0,61.4,53.0,96,72,56,29.96,29.90,5,1,9,0.01
2012-8-29,73.2,65.4,51.7,55.4,51.2,45.6,93,62,41,30.05,29.96,3,1,6,0.00
2012-8-30,83.9,74.4,58.8,67.4,62.1,55.3,91,67,49,30.06,29.94,2,0,8,0.00
2012-8-31,91.4,81.6,63.6,69.9,65.6,57.0,80,60,44,29.94,29.82,6,2,10,0.00
2012-9-1,81.8,72.9,57.2,67.0,58.6,53.3,88,63,43,30.06,29.94,3,1,7,0.00
2012-9-2,72.9,64.2,56.6,61.7,57.7,53.2,97,80,64,30.05,29.98,0,0,7,0.00
2012-9-3,84.0,74.3,62.9,71.6,67.7,61.7,96,81,65,30.00,29.89,4,1,13,0.00
2012-9-4,80.9,69.8,66.6,73.8,68.4,66.0,99,96,79,29.92,29.71,5,1,13,4.19
2012-9-5,81.0,72.5,65.2,70.1,66.5,63.1,99,82,62,29.85,29.77,1,0,4,0.07
2012-9-6,74.8,71.1,65.7,69.8,67.8,64.2,95,89,84,29.81,29.77,0,0,1,0.00
2012-9-7,83.1,76.0,63.4,70.1,66.5,62.6,98,74,54,29.88,29.64,1,0,4,0.16
2012-9-8,68.8,64.1,53.1,67.6,61.2,51.1,98,90,73,29.74,29.37,4,1,19,0.42
2012-9-9,67.4,60.5,51.2,58.6,51.8,47.3,97,75,50,29.96,29.74,4,1,10,0.01
2012-9-10,68.0,59.6,45.6,55.3,46.0,42.7,97,63,42,30.13,29.96,4,1,9,0.00
2012-9-11,75.5,63.1,43.9,57.7,53.0,42.3,96,72,45,30.23,30.13,1,0,5,0.00
2012-9-12,80.8,69.4,52.7,61.4,56.3,50.1,91,66,44,30.26,30.17,2,0,7,0.00
2012-9-13,82.8,69.7,55.4,65.9,60.7,52.8,91,75,49,30.26,30.15,2,0,7,0.00
2012-9-14,81.8,66.4,52.9,68.9,60.4,51.2,95,82,55,30.16,29.99,5,1,8,0.35
2012-9-15,62.2,53.2,49.2,56.1,50.3,47.6,96,90,75,30.20,30.10,1,0,5,0.01
2012-9-16,71.9,62.8,46.4,59.5,54.5,45.3,98,76,56,30.13,29.99,2,0,5,0.00
2012-9-17,75.7,66.3,54.4,60.0,54.5,50.9,93,68,47,30.01,29.81,3,1,8,0.00
2012-9-18,73.1,61.4,49.2,67.2,58.8,45.5,98,92,78,29.81,29.41,4,1,7,0.83
2012-9-19,61.9,53.8,43.3,49.2,44.5,40.7,96,72,50,30.15,29.77,3,1,7,0.00
2012-9-20,71.0,56.2,39.7,53.0,46.4,38.1,95,72,46,30.13,29.89,5,1,10,0.00
2012-9-21,71.3,61.8,56.2,61.4,56.4,51.2,95,83,67,29.90,29.80,3,0,7,0.04
2012-9-22,62.7,57.9,50.0,56.0,52.7,43.1,96,84,67,29.89,29.69,3,1,7,0.22
2012-9-23,60.9,52.4,41.0,48.0,41.8,37.7,95,69,49,30.11,29.89,4,1,14,0.00
2012-9-24,60.9,52.7,37.9,47.6,42.8,36.1,96,70,54,30.14,29.95,4,1,11,0.00
2012-9-25,72.2,65.0,48.2,51.6,48.1,40.3,88,56,41,29.97,29.90,2,1,9,0.01
2012-9-26,68.5,63.2,54.7,61.6,56.2,43.2,88,78,64,30.09,29.90,2,0,9,0.00
2012-9-27,63.2,55.1,42.3,52.1,46.2,38.9,92,73,54,30.22,30.09,4,1,10,0.00
2012-9-28,57.1,52.2,42.2,53.2,49.2,39.2,96,90,74,30.15,30.02,1,0,6,0.03
2012-9-29,59.0,52.5,44.8,55.1,48.5,42.9,97,87,68,30.02,29.91,1,0,5,0.00
2012-9-30,56.7,53.5,48.3,53.7,49.6,46.1,96,87,80,29.92,29.80,4,1,7,0.40
2012-10-1,66.5,61.2,51.9,55.7,52.8,49.2,91,75,65,29.85,29.78,3,2,11,0.00
2012-10-6,51.2,45.4,42.9,37.4,35.4,34.4,75,68,58,30.01,29.90,4,1,14,0.98
2012-10-7,52.1,45.2,36.3,42.6,39.5,34.2,92,81,62,30.09,29.98,1,0,5,0.10
2012-10-8,46.4,39.2,35.5,40.2,35.9,33.0,92,88,79,30.21,30.09,0,0,0,0.01
2012-10-9,60.0,48.0,32.6,46.5,40.7,31.1,96,78,52,30.21,29.94,2,1,9,0.00
2012-10-10,51.8,46.7,40.9,43.2,37.5,33.5,81,70,59,29.96,29.79,4,2,11,0.01
2012-10-11,55.2,49.9,37.8,39.1,35.4,31.9,83,58,48,30.16,29.96,5,1,11,0.00
2012-10-12,52.7,42.0,27.9,38.8,30.6,23.7,91,66,45,30.43,30.00,6,2,13,0.16
2012-10-13,49.0,36.7,25.7,42.2,30.1,22.9,90,78,47,30.44,29.95,3,0,7,0.10
2012-10-14,72.6,67.0,45.7,61.9,58.3,42.6,97,74,61,29.95,29.57,4,1,9,0.32
2012-10-15,57.8,52.3,45.3,50.5,45.1,37.9,88,77,69,29.75,29.57,4,2,15,0.01
2012-10-16,52.3,45.2,36.2,40.7,36.7,33.3,91,73,58,29.89,29.75,3,1,14,0.00
2012-10-17,68.6,54.9,37.8,47.6,43.3,35.4,91,67,40,29.90,29.75,3,0,7,0.01
2012-10-18,65.8,58.8,49.8,50.0,47.2,42.5,89,66,53,29.85,29.67,6,2,13,0.14
2012-10-19,65.2,55.7,47.7,55.2,52.1,46.4,97,88,69,29.86,29.57,3,0,5,0.31
2012-10-20,54.6,51.2,48.0,53.5,44.8,42.7,96,79,70,29.68,29.57,3,1,12,0.02
2012-10-21,52.1,49.7,48.7,46.0,45.5,44.7,88,86,79,30.05,30.01,2,0,9,0.00
2012-10-22,62.7,50.9,43.7,51.4,45.5,41.7,96,83,58,30.10,30.02,2,0,7,0.00
2012-10-23,51.5,50.1,44.7,50.7,48.8,42.2,97,95,91,30.07,29.99,1,0,5,0.83
2012-10-24,56.4,55.0,50.0,55.6,54.3,49.2,98,97,97,30.09,30.04,0,0,4,0.01
2012-10-25,79.6,69.5,55.3,62.8,59.2,54.5,99,71,51,30.08,29.94,4,1,11,0.00
2012-10-26,76.2,60.8,47.3,60.8,52.8,44.7,91,76,57,30.13,29.95,6,2,13,0.02
2012-10-27,51.0,48.7,44.7,50.2,47.8,43.8,97,97,92,30.12,29.93,3,1,6,0.36
2012-10-28,44.2,43.0,42.4,43.4,42.0,41.3,97,97,96,30.04,29.86,4,2,10,0.33
2012-10-29,50.6,46.2,44.2,49.7,45.3,43.4,97,97,96,29.87,29.08,15,8,23,0.98
2012-10-30,55.0,49.4,40.6,52.4,45.5,37.3,97,87,78,29.38,29.07,11,1,17,0.35
2012-10-31,45.9,43.7,40.2,39.7,38.1,36.9,92,81,72,29.42,29.37,1,0,9,0.00
2012-11-1,44.6,42.4,40.4,42.1,39.5,37.6,94,89,83,29.58,29.42,5,2,12,0.27
2012-11-2,40.4,37.9,36.6,38.3,33.7,31.9,92,85,78,29.85,29.58,4,2,12,0.03
2012-11-3,39.3,37.5,35.8,34.2,31.6,29.2,90,79,74,30.06,29.85,4,2,12,0.01
2012-11-4,36.4,35.1,33.0,31.6,30.5,29.2,89,83,75,30.09,30.04,3,1,8,0.01
2012-11-5,35.6,34.0,32.7,29.2,24.8,22.4,82,69,64,30.19,30.14,5,1,7,0.02
2012-11-6,41.5,33.7,27.0,27.9,24.3,20.5,80,69,53,30.19,30.06,2,0,7,0.00
2012-11-7,40.7,32.0,21.1,29.3,24.0,17.8,91,73,48,30.11,30.05,6,1,8,0.00
2012-11-8,42.4,38.8,28.1,28.5,25.5,23.6,84,60,48,30.13,30.06,5,2,8,0.00
2012-11-9,48.1,44.3,36.1,39.5,37.5,32.6,87,77,66,30.18,30.11,2,0,5,0.00
2012-11-10,51.2,48.1,41.4,44.9,42.2,38.7,95,80,72,30.27,30.15,1,0,3,0.02
2012-11-11,71.1,60.7,48.6,48.7,43.8,40.3,82,54,40,30.24,30.14,5,2,10,0.01
2012-11-12,67.4,56.6,40.3,52.5,47.1,37.6,91,72,52,30.14,29.85,8,4,14,0.32
2012-11-13,40.2,36.3,34.6,37.5,26.1,24.0,90,67,58,30.51,30.13,3,1,10,0.01
2012-11-14,38.8,34.6,26.5,31.5,27.5,22.8,87,75,64,30.60,30.47,1,0,4,0.00
2012-11-15,45.4,35.1,26.2,32.2,26.8,23.1,93,73,49,30.48,30.32,2,0,4,0.00
2012-11-16,46.7,38.5,24.5,36.6,31.7,22.2,94,77,62,30.50,30.33,2,0,5,0.01
2012-11-17,49.1,36.7,25.4,37.0,30.7,23.7,95,80,58,30.64,30.50,2,0,4,0.00
2012-11-18,49.2,38.2,26.2,35.7,31.4,24.5,94,77,57,30.64,30.49,2,0,4,0.01
2012-11-19,49.4,39.9,29.6,37.0,33.1,27.0,94,78,58,30.49,30.22,2,0,4,0.00
2012-11-20,48.5,40.4,31.6,37.5,34.7,29.0,94,81,61,30.22,30.10,1,0,3,0.00
2012-11-21,51.5,40.0,25.8,39.2,33.5,24.1,95,79,52,30.24,30.15,2,0,4,0.01
2012-11-22,54.4,39.5,29.4,37.6,31.6,27.4,92,75,51,30.19,29.94,2,0,5,0.00
2012-11-23,53.2,47.8,34.4,45.1,37.9,24.6,77,69,57,29.94,29.61,5,2,14,0.00
2012-11-24,36.4,32.9,30.7,25.2,22.7,20.2,76,66,60,29.90,29.69,7,3,17,0.01
2012-11-25,32.7,31.5,30.3,27.5,25.8,20.5,85,80,65,29.89,29.80,2,0,15,0.01
2012-11-26,37.4,34.8,31.5,28.2,25.3,21.3,80,68,64,30.22,29.84,2,0,9,0.02
2012-11-27,36.5,33.5,30.5,27.1,24.1,20.7,76,68,62,30.28,30.21,2,0,5,0.00
2012-11-28,37.0,33.7,31.7,28.2,24.5,21.3,79,69,62,30.23,30.13,4,1,13,0.00
2012-11-29,45.8,40.9,36.5,34.3,31.5,28.4,79,69,62,30.27,30.16,5,2,10,0.00
2012-11-30,36.4,27.2,24.9,30.8,22.3,19.6,89,82,75,30.42,30.26,3,0,9,0.00
2012-12-1,45.6,37.4,26.8,37.8,31.9,23.8,91,81,73,30.36,30.17,3,1,6,0.06
2012-12-2,52.0,50.1,45.4,50.5,46.7,37.6,96,88,74,30.17,29.88,4,1,14,0.21
2012-12-3,50.8,45.9,41.7,44.2,41.5,38.6,91,85,76,30.21,30.05,1,0,3,0.00
2012-12-4,68.1,57.6,46.8,55.5,51.0,41.9,93,80,60,30.05,29.84,4,2,11,0.38
2012-12-5,46.6,31.8,28.9,41.9,21.9,17.6,84,67,61,30.35,29.92,6,2,14,0.01
2012-12-6,37.9,34.1,27.1,25.2,23.2,18.6,82,65,52,30.36,30.03,3,1,14,0.00
2012-12-7,44.1,41.4,39.1,38.6,36.5,30.5,90,83,69,29.98,29.91,2,0,8,0.00
2012-12-8,45.0,40.5,34.8,43.9,38.6,29.9,96,93,82,30.14,29.72,3,1,11,0.12
2012-12-9,42.7,35.4,30.5,41.4,32.8,26.2,95,90,82,30.26,29.75,3,0,6,0.26
2012-12-10,51.4,41.9,33.6,48.3,38.2,30.4,95,87,81,29.75,29.50,5,2,15,0.09
2012-12-11,33.6,28.3,24.4,30.4,24.9,21.6,92,87,83,30.16,29.71,2,0,13,0.01
2012-12-12,39.7,34.4,27.9,30.3,27.9,25.2,92,77,66,30.41,30.16,3,1,13,0.00
2012-12-13,43.3,35.7,26.7,28.4,25.4,22.3,88,67,51,30.42,30.18,4,1,8,0.01
2012-12-14,43.2,37.2,28.1,32.6,29.5,23.4,88,74,63,30.26,30.16,4,1,8,0.00
2012-12-15,39.9,36.8,28.9,33.8,31.6,25.8,93,82,75,30.30,29.96,1,0,4,0.00
2012-12-16,53.5,46.6,37.3,42.4,39.6,32.0,87,77,65,29.96,29.68,6,3,14,0.03
2012-12-17,47.1,45.8,44.1,44.8,42.2,40.6,93,87,82,29.72,29.53,2,0,14,0.23
2012-12-18,42.0,40.2,38.1,40.9,36.5,28.7,96,87,66,29.69,29.44,4,2,12,0.47
2012-12-19,42.0,37.7,30.3,34.1,30.4,25.4,92,75,62,30.18,29.69,4,1,10,0.00
2012-12-20,40.8,35.6,28.9,35.2,28.9,23.7,90,77,66,30.17,29.42,7,2,11,0.14
2012-12-21,40.4,33.9,29.2,35.7,31.7,27.2,94,92,82,29.43,29.17,5,2,13,0.41
2012-12-22,31.1,29.6,26.0,27.1,23.9,22.0,93,79,71,29.89,29.31,6,4,21,0.00
2012-12-23,34.0,32.0,27.5,27.1,24.5,19.3,86,74,68,29.99,29.76,5,2,14,0.07
2012-12-24,32.0,29.7,27.6,25.2,21.9,19.8,88,73,65,30.05,29.87,2,0,7,0.01
2012-12-25,31.5,28.8,27.3,25.6,24.2,22.8,91,83,74,30.32,29.89,3,0,9,0.07
2012-12-26,27.4,23.7,21.5,25.5,19.6,14.8,95,84,72,30.32,29.77,5,1,9,0.00
2012-12-27,27.0,23.5,22.5,25.8,22.0,20.9,95,94,94,30.03,29.74,5,2,13,0.00
2012-12-28,26.9,23.0,16.2,25.1,21.1,14.0,94,92,91,30.13,30.02,2,0,8,0.02
2012-12-29,27.8,25.6,13.9,26.6,24.1,11.5,95,94,90,30.03,29.66,3,0,4,0.00
2012-12-30,25.7,24.4,23.0,21.5,19.4,17.8,89,81,74,30.23,30.10,5,2,12,0.00
2012-12-31,34.1,31.7,25.8,28.3,25.0,20.3,84,76,69,30.17,29.83,4,2,16,0.01
2013-1-1,33.2,19.3,5.6,27.5,14.1,2.1,86,80,66,30.03,29.83,5,2,9,0.00